Find Starlink 11427

NORAD ID: 62063 Int'l Des: 2024-217 Owner: SPXS Country: US Constellation: starlink operational
LEOCIRCULAR

实时位置

正在加载3D地球...

关于 Starlink 11427

正在加载描述...

即将过境

Passes for default location (London). Set your location on the main map for personalized predictions.

高度历史

Loading altitude history...

两行轨道根数

1 62063U 24217G 26123.58976185 .00169044 00000-0 13669-2 0 9997
2 62063 53.1571 160.8078 0001267 87.8338 272.2825 15.69798347 83798
Epoch: May 3, 2026 • Age: 17 hours

当前状态

高度 364.1 km
速度 7.70 km/s
星下点 51.20°N, 106.25°W
发射日期 Nov 24, 2024
运行时间 1.4 years
类型 internet

技术详情

分类 Payload
质量 960.00 kg
干质量 910.00 kg
总质量 960.00 kg
长度 0.30 m
直径 4.10 m
跨度 29.00 m
形状 Box + pan
制造商 SPXS
平台类型 Starlink V2MD
阶段状态 In Orbit
所有者/国家 SPXS/US

Most Searched